Other Surface Observations
Issued by NWS

Home | Current Version | Previous Version | Text Only | Print | Product List | Glossary On
Versions: 1 2 3 4 5 6 7 8 9 10 11 12 13 14 15 16 17 18 19 20 21 22 23 24 25 26 27 28 29 30 31 32 33 34 35 36 37 38 39 40 41 42 43 44 45 46 47 48 49 50
000
SXUS52 KTAE 281318
OSOTAE
OSOTAE
North Florida/South Alabama/Southwest Georgia Weather Roundup
National Weather Service Tallahassee Florida
900 AM EDT TUE JUL 28 2015

Note: "fair" indicates few or no clouds below 12,000 feet with no
significant weather and/or obstructions to visibility.

!FLZ017-115-028-034-025-281400
...North Florida...

CITY           SKY/WX    TMP DP  RH WIND       PRES   REMARKS
TALLAHASSEE    PTSUNNY   84  76  76 CALM      29.98R HX  93
APALACHICOLA   CLOUDY    82  76  81 N3        29.98R
PERRY          MOSUNNY   79  79 100 NE3       29.99R
CROSS CITY       N/A     78  76  93 CALM      29.98R
JACKSONVILLE   MOSUNNY   80  75  84 CALM      29.96S
$$

!FLZ112-006-005-002-011-281400
...Florida Panhandle...

CITY           SKY/WX    TMP DP  RH WIND       PRES   REMARKS
MARIANNA       MOSUNNY   82  76  81 CALM      29.98R
BONIFAY        FAIR      82  75  79 CALM      29.99R
PANAMA CITY NW FAIR      81  74  79 NW3       29.98R
TYNDALL AFB    MOSUNNY   81  75  82 N3        29.98R
TYND DRONE APT CLOUDY    81  77  87 NE5       29.98R
DE FUNIAK SPR  FAIR      80  74  82 N3        30.01R
EGLIN AFB      MOSUNNY   83  73  71 NW7       30.00R
DESTIN         MOSUNNY   84  74  71 N8        29.99R HX  91
HURLBURT       MOSUNNY   83  73  72 N5        29.98R
CRESTVIEW      PTSUNNY   82  74  76 NW7       30.02R
PENSACOLA      SUNNY     82  73  74 NW9       30.00R
$$

!ALZ063-066-281400
...South Alabama...

CITY           SKY/WX    TMP DP  RH WIND       PRES   REMARKS
DOTHAN         PTSUNNY   82  73  74 N5        30.03R
OZARK CAIRNS   MOSUNNY   80  76  86 VRB1      30.00R
FT RUCKER HELI PTSUNNY   79  74  84 CALM      29.99R
RUCKER HELI 3  FAIR      80  75  85 NW5       30.02R
RUCKER HELI 2  FAIR      80  78  94 N3        29.99R
FLORALA APT    SUNNY     81  74  79 CALM      30.02R
ANDALUSIA      SUNNY     85  75  72 CALM      30.01R HX  93
TROY           SUNNY     80  74  81 CALM      30.02R
EUFALA         FAIR      84  75  74 CALM      29.99R HX  92
MOBILE         MOSUNNY   81  76  84 NW3       30.03R
$$

!GAZ120>161-281400
...Southwest and South Central Georgia...

CITY           SKY/WX    TMP DP  RH WIND       PRES   REMARKS
THOMASVILLE    FAIR      79  77  94 CALM      30.01R
BAINBRIDGE     MOSUNNY   84  79  84 CALM      29.99R HX  96
MOODY AFB      PTSUNNY   79  77  94 N5        29.99R
VALDOSTA       MOSUNNY   80  78  94 N6        29.99R
MOULTRIE       SUNNY     81  75  83 CALM      30.01R
BLAKELY        SUNNY     81  77  89 CALM      30.00R
ALBANY         SUNNY     81  75  82 CALM      30.01R
TIFTON         CLOUDY    78  76  94 CALM      30.01R
FITZGERALD     CLOUDY    80  79  96 CALM      30.03R
CORDELE        FAIR      83  77  84 CALM      30.02R HX  91
AMERICUS       FAIR      79  77  94 CALM      30.03R
HOMERVILLE     FOG       79  79 100 N3        30.00R VSB 3/4
$$

!GMZ750-755-770-775-281400
...Coastal and Buoy Obs...

STATION/POSITION TIME  TEMP    WIND        PRES    VSBY  WAVE
                       AIR SEA DIR/SP/G                  HT/PER
                 (UTC) (F)     (DEG/KT/KT) (MB)    (MI)  (FT/S)
KEATON BEACH     1300   76      50/  3/  4 1015.4R
CEDAR KEY        1300   80      30/  4/  6 1015.2R
C TOWER          1300   83     360/  8/  8 1014.8R
APALACHICOLA BUO 1250   85 85  310/ 14/ 17 1014.6R         4/ 4
PANAMA CITY BUOY 1250   86 86  310/ 12/ 14 1015.8R         1/ 3
MOBILE BUOY      1250   85 87  300/  6/  8 1016.4R         1
ORANGE BCH AL BU 1250   84 84  330/ 10/ 12 1015.1R         1/ 3
$$



USA.gov is the U.S. government's official web portal to all federal, state and local government web resources and services.